User: anonymous   Login
Location: Grossmotten
(48.5500°N, 15.3833°E)
Time: 16:38:09
(UTC+00:00)
Language:

SL-16 R/B - Orbit

View from above orbital plane
View from above orbital plane
View from above satellite
View from above satellite

Ground track
Ground track

The orbit data is extracted from the following two-line orbital elements,

1 31793U 07029B   20024.58029234 +.00000191 +00000-0 +12462-3 0  9991
2 31793 070.9728 190.6850 0001880 253.8548 168.6450 14.14422634649201
Epoch (UTC): 24 January 2020 13:55:37
Eccentricity: 0.0001880
inclination: 70.9728°
perigee height: 843 km
apogee height: 845 km
right ascension of ascending node: 190.6850°
argument of perigee: 253.8548°
revolutions per day: 14.14422634
mean anomaly at epoch: 168.6450°
orbit number at epoch: 64920

The dashed part of the orbit path shows where the satellite is in the earth's shadow,  

DLR